| time (UTC) | temp F | wind direction | speed knots | gust knots | rain 1hr in | rain 24hr in | rain mn in | humidity % | barometer mb |
| 20260901220020 | 74 | 23 | 0.9 | 3.5 | 0.01 | 0.36 | 0.33 | 82 | 1014.8 |
| 20260901213015 | 75 | 0 | 0.9 | 2.6 | 0.00 | 0.35 | 0.32 | 81 | 1014.5 |
| 20260901210035 | 76 | 0.0 | 0.0 | 0.00 | 0.35 | 0.32 | 80 | 1014.4 | |
| 20260901203017 | 77 | 0.0 | 0.0 | 0.00 | 0.35 | 0.32 | 77 | 1014.2 | |
| 20260901200015 | 79 | 0.0 | 0.0 | 0.00 | 0.35 | 0.32 | 74 | 1014.0 | |
| 20260901193035 | 80 | 0.0 | 0.9 | 0.00 | 0.36 | 0.32 | 72 | 1014.1 | |
| 20260901190017 | 81 | 0.0 | 1.7 | 0.00 | 0.36 | 0.32 | 72 | 1014.1 | |
| 20260901183017 | 81 | 0.0 | 1.7 | 0.00 | 0.36 | 0.32 | 72 | 1014.3 | |
| 20260901180022 | 79 | 225 | 0.9 | 4.3 | 0.00 | 0.36 | 0.32 | 75 | 1014.3 |
| 20260901173017 | 78 | 0.0 | 3.5 | 0.00 | 0.36 | 0.32 | 76 | 1014.1 | |
| 20260901170022 | 76 | 0.0 | 3.5 | 0.00 | 0.36 | 0.32 | 80 | 1014.3 | |
| 20260901163017 | 75 | 0.0 | 1.7 | 0.00 | 0.36 | 0.32 | 82 | 1014.6 | |
| 20260901160017 | 73 | 0.0 | 1.7 | 0.00 | 0.36 | 0.32 | 84 | 1015.1 | |
| 20260901153036 | 72 | 0.0 | 2.6 | 0.00 | 0.36 | 0.32 | 84 | 1015.6 | |
| 20260901150016 | 71 | 0.0 | 1.7 | 0.00 | 0.36 | 0.32 | 84 | 1015.6 | |
| 20260901143016 | 71 | 0.0 | 0.9 | 0.03 | 0.36 | 0.32 | 84 | 1015.4 | |
| 20260901140036 | 70 | 0.0 | 0.9 | 0.09 | 0.36 | 0.32 | 84 | 1015.8 | |
| 20260901133016 | 70 | 0.0 | 0.0 | 0.12 | 0.33 | 0.29 | 84 | 1015.8 | |
| 20260901130021 | 69 | 0.0 | 0.0 | 0.11 | 0.27 | 0.23 | 84 | 1016.1 | |
| 20260901123016 | 69 | 0.0 | 1.7 | 0.05 | 0.21 | 0.17 | 84 | 1016.0 | |
| 20260901120016 | 69 | 0.0 | 1.7 | 0.01 | 0.16 | 0.12 | 84 | 1015.8 | |
| 20260901113037 | 69 | 0.0 | 0.9 | 0.02 | 0.16 | 0.12 | 84 | 1015.6 | |
| 20260901110016 | 68 | 0.0 | 0.9 | 0.01 | 0.15 | 0.11 | 84 | 1015.8 | |
| 20260901103016 | 68 | 0.0 | 0.0 | 0.00 | 0.14 | 0.10 | 84 | 1015.6 | |
| 20260901100016 | 68 | 0.0 | 0.9 | 0.00 | 0.14 | 0.10 | 84 | 1015.7 | |
| 20260901093021 | 68 | 0.0 | 0.9 | 0.00 | 0.14 | 0.10 | 84 | 1015.7 | |
| 20260901090016 | 68 | 0.0 | 0.9 | 0.05 | 0.14 | 0.10 | 84 | 1015.7 | |
| 20260901083016 | 68 | 0.0 | 0.0 | 0.05 | 0.14 | 0.10 | 84 | 1016.0 | |
| 20260901080016 | 68 | 0.0 | 0.0 | 0.00 | 0.09 | 0.05 | 84 | 1016.2 | |
| 20260901073016 | 68 | 0.0 | 0.0 | 0.00 | 0.09 | 0.05 | 84 | 1016.6 | |
| 20260901070016 | 68 | 0.0 | 0.9 | 0.00 | 0.09 | 0.05 | 84 | 1016.7 | |
| 20260901063016 | 68 | 0.0 | 0.9 | 0.02 | 0.09 | 0.05 | 83 | 1016.8 | |
| 20260901060017 | 68 | 0.0 | 0.9 | 0.02 | 0.09 | 0.05 | 83 | 1017.1 | |
| 20260901053021 | 68 | 0.0 | 0.0 | 0.02 | 0.07 | 0.03 | 83 | 1017.2 | |
| 20260901050018 | 68 | 0.0 | 0.0 | 0.03 | 0.07 | 0.03 | 83 | 1017.5 | |
| 20260901043016 | 68 | 0.0 | 0.0 | 0.02 | 0.05 | 0.01 | 83 | 1017.5 | |
| 20260901040015 | 68 | 0.0 | 0.9 | 0.01 | 0.04 | 0.04 | 82 | 1017.7 | |
| 20260901033017 | 68 | 0.0 | 0.0 | 0.01 | 0.03 | 0.03 | 82 | 1017.9 | |
| 20260901030036 | 68 | 0.0 | 0.0 | 0.01 | 0.03 | 0.03 | 82 | 1017.8 | |
| 20260901023016 | 68 | 0.0 | 0.0 | 0.00 | 0.02 | 0.02 | 81 | 1018.2 | |
| 20260901020035 | 68 | 0.0 | 0.9 | 0.00 | 0.03 | 0.02 | 80 | 1018.2 | |
| 20260901013117 | 68 | 0.0 | 0.0 | 0.01 | 0.03 | 0.02 | 79 | 1018.1 | |
| 20260901010057 | 68 | 0.0 | 0.0 | 0.01 | 0.03 | 0.02 | 78 | 1018.3 | |
| 20260901003015 | 68 | 0.0 | 0.0 | 0.00 | 0.02 | 0.01 | 76 | 1018.2 | |
| 20260901000015 | 68 | 0.0 | 0.0 | 0.00 | 0.02 | 0.01 | 76 | 1018.1 | |
| 20260831233016 | 68 | 0.0 | 0.0 | 0.00 | 0.02 | 0.01 | 75 | 1018.0 | |
| 20260831230016 | 68 | 0.0 | 0.0 | 0.00 | 0.02 | 0.01 | 74 | 1018.3 | |
| 20260831223016 | 69 | 0.0 | 3.5 | 0.00 | 0.02 | 0.01 | 74 | 1018.5 |